Regional Weather Roundup
Issued by NWS New Orleans/Baton Rouge, LA

Home | Current Version | Previous Version | Text Only | Print | Product List | Glossary On
Versions: 1 2 3 4 5 6 7 8 9 10 11 12 13 14 15 16 17 18 19 20 21 22 23 24 25 26 27 28 29 30 31 32 33 34 35 36 37 38 39 40 41 42 43 44 45 46 47 48 49 50
000
ASUS44 KLIX 120410
RWRLIX
NEW ORLEANS REGIONAL WEATHER ROUNDUP
NATIONAL WEATHER SERVICE NEW ORLEANS LA
1000 PM CST THU FEB 11 2016

NOTE: "FAIR" INDICATES FEW OR NO CLOUDS BELOW 12,000 FEET WITH NO
      SIGNIFICANT WEATHER AND/OR OBSTRUCTIONS TO VISIBILITY.
      SKY/WX - SKY CONDITION AND SIGNIFICANT WEATHER.
      TMP - AIR TEMPERATURE.     DP    - DEWPOINT TEMPERATURE.
      RH  - RELATIVE HUMIDITY.   PRES  - PRESSURE.
      HI  - HEAT INDEX.          WCI   - WIND CHILL INDEX.

*  THESE STATIONS ARE NOT NWS OR FAA STATIONS AND ARE NOT UNDER
   NWS QUALITY CONTROL.

LAZ038-040-048-061>063-065>067-069-120500-
SOUTHEAST LOUISIANA

CITY           SKY/WX    TMP DP  RH WIND       PRES   REMARKS
N.O. AUDUBON     N/A     55  55 100 MISG        N/A
N.O. INTL ARPT PTCLDY    60  54  80 SW7       30.22R
N.O. LAKEFRONT PTCLDY    58  55  90 SW10      30.22S
N.O. DOWNTOWN*   N/A     63  55  77 MISG      30.24R
RESERVE*         N/A     59  55  88 SW6       30.22S
SLIDELL        CLEAR     63  57  81 SW8       30.20R
BATON ROUGE    PTCLDY    60  56  86 SW8       30.20R
BOOTHVILLE     CLEAR     60  57  89 SW5       30.25S
BELLE CHASSE   PTCLDY    53  52  96 SW7       30.23R
BOGALUSA*        N/A     61  54  77 SW6       30.19R
GALLIANO*      CLEAR     58  55  91 SW6       30.23S
NEW ROADS*       N/A     60  56  87 SW8       30.19S
GONZALES*        N/A     59  57  96 CALM      30.21R
HAMMOND*       PTCLDY    61  54  77 SW8       30.19S
HOUMA*         PTCLDY    57  57  99 SW3       30.23S
PORT FOURCHON* CLEAR     61  57  88 SW7       30.25R

$$

MSZ070-080>082-120500-
SOUTHERN MISSISSIPPI

CITY           SKY/WX    TMP DP  RH WIND       PRES   REMARKS
MCCOMB         CLEAR     61  53  75 SW7       30.16R
GULFPORT       CLEAR     60  54  80 SW5       30.19S
BILOXI         CLEAR     58  57  97 W12G20    30.18F
PASCAGOULA     CLEAR     59  55  87 SW5       30.19F

$$

COASTAL OBSERVATIONS
LAKE AND NEARSHORE STATIONS

STATION/POSITION TIME  TEMP    WIND        PRES    WAVE
                       AIR SEA DIR/SP/G            HT/PER
                 (UTC) (F)     (DEG/KT/KT) (MB)    (FT/S)
PASCAGOULA       0300   59                 1022.0
WAVELAND YACHT   0300   62 56              1022.2
GRAND ISLE       0300   63 62              1023.9
NEW CANAL        0300   62 56              1022.2
SHELL BEACH      0300   59 54              1022.8

OFFSHORE STATIONS

STATION/POSITION TIME  TEMP    WIND        PRES    WAVE
                       AIR SEA DIR/SP/G            HT/PER
                 (UTC) (F)     (DEG/KT/KT) (MB)    (FT/S)

$$




USA.gov is the U.S. government's official web portal to all federal, state and local government web resources and services.